Location: Boschkau
(49.9284°N, 14.7059°E)
Time: 13:24:19
(UTC+00:00)

Daily predictions for brighter satellites

Satellite Brightness Start Highest point End
(mag) Time Altitude Azimuth Time Altitude Azimuth Time Altitude Azimuth
SL-16 R/B 2.3 19:49:37 10° NNW 19:55:20 82° WSW 20:01:00 10° SSE
USA 234 3.5 19:49:21 10° ENE 19:55:39 47° SE 20:01:54 10° SSW
Cosmos 1933 Rocket 4.3 19:52:01 10° NNW 19:56:22 56° W 20:00:42 10° S
Cosmos 2333 Rocket 2.6 19:53:24 10° NNW 19:59:05 57° NE 20:04:45 10° SE
Meteor 1-15 Rocket 4.2 19:53:45 10° N 19:59:22 81° ENE 20:04:58 10° SSE
Cosmos 676 Rocket 4.1 19:54:35 10° SSW 19:59:54 88° WNW 20:05:16 10° NNE
Landsat 4 3.9 19:56:57 10° SSE 20:00:16 49° ENE 20:03:36 10° N
Cosmos 2082 Rocket 3.4 19:55:06 10° SW 20:00:37 49° NW 20:06:10 10° NNE
Cosmos 1842 4.5 19:58:34 10° SSW 20:02:02 41° WNW 20:05:32 10° N
Cosmos 2315 Rocket 4.2 19:59:58 10° N 20:06:20 64° ENE 20:12:39 10° SSE
SL-14 R/B 3.7 20:05:03 10° SSE 20:08:37 41° E 20:12:13 10° NNE
Cosmos 1862 Rocket 4.4 20:06:09 10° SSE 20:10:04 33° E 20:14:04 10° NNE
Resurs 01 Rocket 4.2 20:08:04 10° SW 20:10:48 16° W 20:13:32 10° NW
Atlas Centaur 2 4.5 20:06:15 10° SW 20:11:04 17° S 20:15:57 10° SSE
Cosmos 1346 Rocket 3.1 20:08:38 10° N 20:12:27 52° ENE 20:16:10 10° SSE
ERS-1 Rocket 3.2 20:11:07 10° S 20:16:08 70° WSW 20:21:10 10° NNW
Cosmos 841 Rocket 3.8 20:11:30 10° NNW 20:16:44 66° WSW 20:21:55 10° S
Cosmos 2237 Rocket 4.5 20:14:03 10° N 20:17:37 17° NNE 20:21:10 10° ENE
Cosmos 1455 3.9 20:16:09 10° NNE 20:18:37 18° ENE 20:21:05 10° ESE
RESURS DK-1 2.8 20:19:10 10° NW 20:23:10 56° WSW 20:27:05 10° SSE
Terra 2.2 20:22:38 10° S 20:27:18 64° WSW 20:32:00 10° NNW
SJ 16-02 2.1 20:23:47 10° SSE 20:27:37 32° ESE 20:31:30 10° NE
Cosmos 2333 4.4 20:22:19 10° NNW 20:28:07 71° ENE 20:33:27 12° SE
Spot 2 Rocket 3.7 20:24:16 10° S 20:29:18 71° WSW 20:34:25 10° NNW
Cosmos 1707 Rocket 3.7 20:26:03 10° S 20:30:26 62° E 20:34:50 10° NNE
Aureole 3 4.1 20:27:07 11° SSE 20:30:43 43° E 20:35:25 10° NNE
Cosmos 1758 3.4 20:29:54 10° NNW 20:33:49 74° W 20:37:41 10° S
Cosmos 807 4.3 20:34:02 11° S 20:37:04 56° E 20:39:59 10° NNE
Cosmos 2322 Rocket 2.5 20:32:04 10° NW 20:37:41 62° WSW 20:42:59 12° SSE
ATLAS 2AS CENTAUR R/B 2.7 20:31:21 10° NW 20:38:14 79° SW 20:44:10 13° SSE
Cosmos 839 Rocket 4.2 20:32:05 10° NW 20:39:15 80° NE 20:44:53 13° SE
BREEZE-M DEB (TANK) 3.8 20:37:38 10° WSW 20:41:45 71° SSE 20:57:50 10° ENE
Meteor 2-10 Rocket 4.1 20:36:35 10° NNW 20:42:06 61° W 20:47:22 10° S
Cosmos 1733 Rocket 3.3 20:44:32 10° NNW 20:48:57 71° W 20:53:00 12° S
ARIANE 5 R/B 3.7 20:45:49 13° SE 20:49:09 32° ENE 20:53:01 10° N
SL-4 R/B 2.2 20:47:01 10° WNW 20:50:53 70° N 20:55:02 10° E
USA 281 3.7 20:47:30 12° SE 20:53:32 55° NE 20:59:56 10° NNW
Cosmos 1300 3.5 20:50:40 10° NNW 20:54:04 42° W 20:57:21 10° SSW
Ariane Rocket 3.8 20:49:18 10° S 20:54:11 47° W 20:59:06 10° NNW
Okean 1-7 3.4 20:53:31 16° SSE 20:56:48 49° E 21:00:59 10° NNE
SL-27 R/B 2.2 20:54:57 10° SSW 20:57:41 65° WNW 21:00:30 10° NNE
Cosmos 1400 Rocket 4.4 20:57:51 10° SW 21:01:22 32° WNW 21:04:52 10° N
Cosmos 2219 Rocket 2.2 20:56:42 10° NNW 21:02:26 89° ENE 21:06:53 17° SSE
Cosmos 1908 Rocket 3.8 20:59:10 10° N 21:03:29 57° ENE 21:06:27 19° SSE
Meteor 1-21 4.4 20:57:51 10° SSW 21:03:40 81° WNW 21:09:32 10° N
GP-B 3.9 20:59:36 10° NNE 21:03:44 38° E 21:06:32 18° SE
COSMOS 2428 3.3 20:58:35 10° NNW 21:04:09 51° NE 21:08:56 14° SE
Cosmos 1356 Rocket 4.0 21:00:33 10° SSW 21:04:41 56° WNW 21:08:51 10° N
BREEZE-M DEB (TANK) 3.1 21:03:39 10° W 21:05:37 29° SSW 21:06:53 21° SSE
ATLAS CENTAUR R/B 1.3 21:04:37 10° SW 21:08:05 66° NW 21:11:43 10° NE
Kosmos-1783 4.3 21:07:24 10° NW 21:10:57 89° SW 21:16:49 15° SE
Okean 2 3.3 21:08:11 18° S 21:11:04 65° E 21:15:04 10° NNE
OPS 8737 4.5 21:12:12 10° NW 21:15:03 49° SW 21:16:30 25° SSE
Meteor 1-4 Rocket 2.1 21:13:06 17° SSW 21:15:15 74° WNW 21:18:17 10° N
Cosmos 2228 Rocket 4.2 21:11:22 10° SSW 21:15:43 44° WNW 21:20:07 10° N
Cosmos 1953 2.1 21:14:36 10° N 21:18:28 89° W 21:20:51 22° S
Cosmos 1315 Rocket 2.7 21:17:29 17° S 21:20:28 83° ESE 21:24:29 10° NNE
Cosmos 1570 Rocket 4.2 21:15:35 10° NNW 21:20:57 72° ENE 21:24:46 20° SSE
Cosmos 968 Rocket 3.9 21:18:05 10° SW 21:23:12 65° WNW 21:28:24 10° NNE
SeaSat 1 4.4 21:19:48 10° SSW 21:23:18 19° WSW 21:26:49 10° WNW
Cosmos 1300 Rocket 4.3 21:19:30 10° N 21:23:36 41° ENE 21:26:11 20° SE
Cosmos 158 Rocket 4.3 21:21:31 10° NNW 21:26:48 59° ENE 21:30:29 19° SE
Cosmos 2360 Rocket 3.3 21:22:07 10° NW 21:27:12 35° WSW 21:31:30 14° SSW
Cosmos 1242 Rocket 1.9 21:29:30 35° SSE 21:30:25 59° E 21:33:08 10° NNE
BlueWalker 3 2.5 21:31:50 23° S 21:33:25 32° SE 21:36:48 10° ENE
SL-16 R/B 4.4 21:35:32 10° WNW 21:38:31 15° W 21:41:29 10° SW
COSMOS 2455 3.6 21:35:30 21° SSE 21:38:43 34° ESE 21:44:05 10° NE
USA 234 3.5 21:32:22 10° ENE 21:38:55 74° NNW 21:45:26 10° WSW
ALOS 2 3.6 21:37:03 17° SE 21:39:50 36° ENE 21:43:52 10° N
NOSS 0 Rocket 4.2 21:34:40 10° NNW 21:40:55 67° NE 21:45:42 18° SE
Cosmos 2333 Rocket 3.6 21:38:10 10° NW 21:43:03 29° WSW 21:47:09 13° SSW
Cosmos 1703 Rocket 3.6 21:43:34 20° SSW 21:46:40 80° W 21:51:10 10° N
Cosmos 1455 3.1 21:49:57 10° NNW 21:53:12 36° W 21:55:03 20° SSW
Cosmos 1709 Rocket 4.3 21:49:59 22° SSE 21:54:08 56° E 22:00:20 10° NNE
SL-16 R/B 4.2 21:51:03 10° NNW 21:55:36 23° NE 22:00:05 10° E
Cosmos 2208 Rocket 4.0 21:50:22 10° NNW 21:55:36 81° WSW 21:58:40 25° SSE
Cosmos 1408 2.3 21:55:12 39° SE 21:55:55 51° E 21:58:50 10° NNE
MINOTAUR 4 R/B 3.4 21:53:37 10° NNE 21:56:33 88° ESE 21:57:30 39° SSW
EXPRESS MD2 1.6 21:57:26 10° W 21:59:39 85° S 21:59:45 78° ESE
CZ-4C R/B 2.6 21:58:27 26° SSE 22:00:12 35° ESE 22:05:09 10° NE
H-2A R/B 2.5 21:58:41 28° SSE 22:00:58 89° NE 22:05:14 10° NNW
Cosmos 1703 3.9 22:00:20 28° SE 22:01:35 38° E 22:05:02 10° NNE
Cosmos 2237 Rocket 2.6 21:57:21 10° NNW 22:02:58 57° NE 22:07:12 17° SE
Cosmos 2242 Rocket 3.8 22:02:21 27° SSE 22:04:42 62° E 22:09:13 10° NNE
SJ 16-02 3.0 22:02:04 10° WSW 22:05:56 31° WNW 22:09:51 10° N
CZ-2C R/B 4.0 22:01:54 10° N 22:06:16 62° WNW 22:09:29 18° SSW
Cosmos 2322 4.1 22:00:48 10° NW 22:06:19 53° WSW 22:09:35 24° S
GENESIS II 4.0 22:04:46 17° SW 22:07:30 84° NW 22:11:10 10° NE
Cosmos 2227 Rocket 3.7 22:08:29 17° SE 22:10:40 22° E 22:14:51 10° NE
Meteor 1-24 Rocket 4.1 22:10:17 24° SSE 22:13:33 52° E 22:19:00 10° NNE
Cosmos 1980 3.8 22:10:33 10° NNW 22:16:15 74° ENE 22:20:05 21° SE
SAR-Lupe-3 4.5 22:15:27 36° S 22:16:50 83° WSW 22:20:27 10° NNW
Cosmos 371 Rocket 3.4 22:15:49 28° S 22:18:13 59° ESE 22:22:58 10° NNE
ARIANE 5 R/B 3.8 22:23:17 19° SW 22:25:32 31° W 22:29:25 10° NNW
ATLAS 2AS CENTAUR R/B 4.3 22:23:40 10° WNW 22:28:03 19° WSW 22:31:35 12° SW
SL-4 R/B 2.0 22:25:43 10° WNW 22:29:42 60° SSW 22:31:56 25° SE
Cosmos 2297 Rocket 2.4 22:27:16 26° S 22:30:15 53° ESE 22:35:44 10° NE
Cosmos 1486 Rocket 3.9 22:28:53 23° SSW 22:32:10 88° ESE 22:37:25 10° NNE
Cosmos 1825 3.4 22:31:23 22° ESE 22:32:14 24° E 22:35:05 10° NE
Okean 1 Rocket 4.1 22:32:27 10° N 22:36:30 36° ENE 22:38:57 20° SE
USA 281 4.0 22:34:22 20° SSW 22:38:15 38° WSW 22:44:20 10° NW
NOSS 8 (H) 4.2 22:37:58 29° SW 22:39:39 87° SE 22:42:40 10° NE
PSLV R/B 3.7 22:37:53 10° NNE 22:42:04 57° E 22:43:45 32° SSE
Spot 4 4.5 22:41:21 25° SSW 22:43:43 44° W 22:48:21 10° NNW
Cosmos 2219 Rocket 4.1 22:42:05 10° WNW 22:45:34 17° W 22:48:35 11° SW
ATLAS CENTAUR R/B 4.1 22:44:15 10° WNW 22:46:26 15° NNW 22:48:40 10° NNE
Cosmos 1354 Rocket 4.2 22:44:53 28° S 22:47:35 61° ESE 22:52:49 10° NNE
COSMOS 2428 3.7 22:43:11 10° NW 22:48:11 32° WSW 22:50:54 21° SSW
Meteor 2-5 Rocket 3.8 22:46:15 25° SSW 22:49:54 86° WNW 22:55:46 10° NNE
BREEZE-M DEB (TANK) 1.8 22:50:47 10° WNW 22:53:34 54° NNE 22:54:55 17° E
Cosmos 2098 Rocket 4.2 22:48:21 10° NNW 22:54:56 71° W 22:58:50 25° S
Cosmos 2181 Rocket 3.9 22:49:35 10° N 22:55:49 83° W 22:59:29 26° S
Cosmos 2084 Rocket 3.7 22:55:25 34° S 22:56:49 49° SE 23:00:49 10° NE
H-2A R/B 2.3 22:53:16 10° NNE 22:57:27 53° E 22:59:07 32° SSE
Cosmos 2263 Rocket 3.8 23:00:27 16° SE 23:02:57 22° ESE 23:07:04 10° NE
NOSS 8 (A) 4.2 23:01:50 10° NW 23:04:47 84° NE 23:06:11 32° SE
Cosmos 304 Rocket 4.0 23:03:17 23° SW 23:06:13 65° WNW 23:10:59 10° NNE
Cosmos 2074 Rocket 4.1 23:05:16 26° S 23:08:57 71° E 23:15:09 10° NNE
Cosmos 2151 Rocket 3.6 23:05:09 10° NNW 23:09:32 66° W 23:11:26 32° SSW
Cosmos 405 Rocket 3.3 23:07:20 10° NNW 23:10:55 42° W 23:12:07 32° SW
BlueWalker 3 2.0 23:07:39 10° WSW 23:11:25 72° NNW 23:15:09 10° ENE
Cosmos 332 Rocket 3.8 23:09:40 30° S 23:12:01 69° ESE 23:16:54 10° NNE
Cosmos 1455 Rocket 4.2 23:08:53 10° N 23:13:02 38° ENE 23:15:56 18° SE
Okean 2 Rocket 3.3 23:11:39 10° NNW 23:16:05 62° W 23:18:04 31° SSW
ALOS 2 3.9 23:14:27 21° SW 23:16:14 28° W 23:20:03 10° NW
USA 234 4.2 23:15:17 10° ENE 23:21:32 49° N 23:27:46 10° WNW
Cosmos 1674 Rocket 3.6 23:20:04 31° SSW 23:22:07 72° W 23:26:28 10° N
Cosmos 1378 Rocket 3.8 23:20:47 28° SSW 23:22:54 60° WNW 23:27:16 10° N
COSMOS 2455 3.4 23:18:34 10° SW 23:24:25 56° NW 23:30:23 10° NNE
Cosmos 1025 Rocket 3.3 23:25:42 29° SSE 23:27:41 57° E 23:31:56 10° NNE
CENTAUR R/B 2.7 23:24:42 26° S 23:27:51 55° ESE 23:34:41 10° NE
Helios 1A Rocket 4.1 23:26:49 15° SE 23:29:29 33° ENE 23:32:56 10° N
Cosmos 990 Rocket 4.1 23:28:09 28° S 23:30:45 62° ESE 23:35:50 10° NNE
Cosmos 2221 Rocket 3.9 23:34:53 27° SW 23:37:08 56° WNW 23:41:31 10° N
Cosmos 1892 3.2 23:37:30 29° SW 23:38:49 43° WNW 23:42:12 10° N
SL-16 R/B 2.2 23:34:43 10° NNW 23:40:28 87° WSW 23:44:44 18° SSE
Cosmos 1295 Rocket 4.5 23:37:49 25° SSW 23:41:36 80° W 23:47:46 10° N
Nadezhda 3 Rocket 4.0 23:36:52 10° NNW 23:43:10 78° W 23:47:09 24° S
Cosmos 1328 3.7 23:42:44 33° SSW 23:44:21 74° W 23:48:15 10° N
Cosmos 2237 Rocket 3.3 23:41:57 10° NW 23:46:41 28° WSW 23:48:59 21° SW
Cosmos 1538 Rocket 4.0 23:42:39 10° NNW 23:47:50 69° WSW 23:50:57 24° S
CZ-4C R/B 2.9 23:43:42 10° WSW 23:48:20 49° NW 23:54:14 10° NE
BREEZE-M DEB (TANK) 2.5 23:43:34 10° WNW 23:50:06 52° SSW 23:51:40 24° SE
Meteor 2-11 Rocket 4.4 23:47:46 24° SSW 23:51:35 85° W 23:57:44 10° N
Cosmos 1869 4.4 23:48:56 10° N 23:52:22 35° ENE 23:55:00 15° SE
Cosmos 2082 4.2 23:49:30 23° S 23:52:40 47° ESE 23:58:02 10° NE
GEOS 3 Rocket 3.5 23:48:17 10° NE 23:53:30 80° SE 23:56:49 22° SW
Cosmos 2227 Rocket 2.3 23:50:16 21° SW 23:54:08 73° WNW 23:59:50 10° NNE
Cosmos 1943 4.2 23:48:54 10° NNW 23:54:19 46° NE 23:59:42 10° SE
CZ-2D R/B 4.1 23:52:12 10° NE 23:55:58 19° E 23:59:40 10° SE
